Regional Weather Roundup
Issued by NWS

Home | Current Version | Previous Version | Graphics & Text | Print | Product List | Glossary On
Versions: 1 2 3 4 5 6 7 8 9 10 11 12 13 14 15 16 17 18 19 20 21 22 23 24 25 26 27 28 29 30 31 32 33 34 35 36 37 38 39 40 41 42 43 44 45 46 47 48 49 50
000
ASUS43 KFSD 221602
RWRSD

WEATHER ROUNDUP FOR SOUTH DAKOTA
NATIONAL WEATHER SERVICE SIOUX FALLS SD
1100 AM CDT FRI AUG 22 2014

NOTE: "FAIR" INDICATES FEW OR NO CLOUDS BELOW 12,000 FEET WITH NO
SIGNIFICANT WEATHER AND/OR OBSTRUCTIONS TO VISIBILITY.


SDZ001>005-009-010-012>017-221700-
NORTHWEST AND NORTH CENTRAL SOUTH DAKOTA

CITY           SKY/WX    TMP DP  RH WIND       PRES   REMARKS
BUFFALO          N/A     64  59  83 SW5       30.03R
FAITH            N/A     65  61  87 NE9       30.06R
MOBRIDGE       CLOUDY    69  65  86 NE5       30.01R
$$

SDZ012>016-024>037-041>051-057-063-072>074-221700-
SOUTHWEST AND SOUTH CENTRAL SOUTH DAKOTA

CITY           SKY/WX    TMP DP  RH WIND       PRES   REMARKS
RAPID CTY ARPT CLOUDY    65  61  87 NE5       30.08S
PIERRE         CLOUDY    73  67  81 E12       29.98F
CUSTER         PTSUNNY   63  54  72 E5        30.17S
ELLSWORTH AFB  CLOUDY    64  62  92 VRB5      30.08S
PHILIP         CLOUDY    70  64  81 E10       30.01F
PINE RIDGE     CLOUDY    64  60  87 W7        30.10R
WINNER         FAIR      78  69  73 E6        30.00S
$$

SDZ004>011-016>023-039-040-221700-
NORTHEAST SOUTH DAKOTA

CITY           SKY/WX    TMP DP  RH WIND       PRES   REMARKS
ABERDEEN       CLOUDY    69  66  90 N6        30.01S
WATERTOWN      PTSUNNY   78  68  71 CALM      30.00R
SISSETON         N/A     73  70  90 N9        29.98R
$$

SDZ017-020-022-023-036>040-048>070-221700-
SOUTHEAST SOUTH DAKOTA

CITY           SKY/WX    TMP DP  RH WIND       PRES   REMARKS
SIOUX FALLS    MOSUNNY   81  70  69 NE8       29.97S
HURON          MOSUNNY   79  67  66 N6        29.98S
CHAMBERLAIN    PTSUNNY   78  66  66 NE7       30.00R
MITCHELL       SUNNY     79  70  74 VRB3      29.98S
YANKTON        SUNNY     81  70  69 NE9       29.97R
$$

ABBREVIATIONS USED IN REMARKS
   TC - TEMPERATURE IN CELSIUS
  WCI - WIND CHILL INDEX
   HX - HEAT INDEX
  VSB - VISIBILITY




USA.gov is the U.S. government's official web portal to all federal, state and local government web resources and services.